sat.trackr.live / text

‹ back to catalog

BANDWAGON-4 OBJECT Q

NORAD 66307 · 2025-248Q

PAYLOAD ACTIVE UNKNOWN

§ Identity

Operator
Country
TBD
Launch date
2025-11-02
Launch site
AFETR
Launch vehicle
Mass (kg)
RCS (m²)

External: N2YO · Heavens-Above · Gunter

§ Orbital elements

Epoch: 2026-05-24T13:15:37.807488Z

Period
94.34 min
Inclination
45.3865°
Eccentricity
0.0012836
Mean motion
15.26351791 rev/d
Perigee alt
477.9 km
Apogee alt
495.5 km
Semi-major
6,864.9 km
B*
4.9355e-4
RAAN
241.8981°
Arg perigee
289.3942°
Mean anomaly
70.5559°
Rev number
3,099

§ Raw data

BANDWAGON-4 OBJECT Q1 66307U 25248Q   26144.55252092  .00012812  00000+0  49355-3 0  99922 66307  45.3865 241.8981 0012836 289.3942  70.5559 15.26351791 30997

JSON: /api/v1/satellites/66307 · /tle

For live sub-satellite position, see the globe view (requires WebGL).

§ Visibility from observer

Set your observer location to see the next 7 days of passes ≥ 10°. The values pass through the URL so the page stays shareable.

No JS? Fill the form by hand. The geolocation button needs JavaScript.